Location: Albert Place
(40.7505°N, 111.9230°W)
Time: 13:59:32
(UTC+00:00)

Meteor 2-20 - Pass Details

Date: 13 December 2025
Orbit: 937 x 959 km, 82.5° (Epoch: 17 January)

Event Time Altitude Azimuth Distance (km) Brightness Sun altitude
Exits shadow 12:18:58 11° 355° (N) 2,594 6.6 -26.5°
Maximum altitude 12:24:52 76° 82° (E) 970 4.5 -25.4°
Drops below altitude 10° 12:30:54 10° 168° (SSE) 2,643 7.0 -24.3°
Sets 12:33:23 0° 170° (S) 3,582 7.7 -23.8°
